Location: Newcastle Observatory
(43.9158°N, 78.5831°W)
Time: 13:06:00
(UTC-05:00)

Amateur Radio Satellites - All Passes

Search period start: 01 March 2017 12:36
Search period end: 02 March 2017 12:36
Location: Newcastle Observatory, 43.9158°N, 78.5831°W

Satellite Date Start Highest point End Downlink Frequencies (MHz)
Time Altitude Azimuth
POLYITAN 1 01 Mar 12:37:50 12:38:58 11° 271° (W) 12:40:06 437.675
BUGSAT 1 01 Mar 12:38:08 12:41:46 31° 264° (W) 12:45:29 437.445
Gurwin Techsat 1B 01 Mar 12:41:39 12:46:39 44° 69° (ENE) 12:51:41 435.225
AO-7 01 Mar 12:42:31 12:48:00 20° 47° (NE) 12:53:27 .
Tancredo 1 01 Mar 12:46:24 12:49:36 62° 215° (SW) 12:52:47 437.200
ESTCUBE 1 01 Mar 12:48:31 12:52:15 27° 293° (WNW) 12:55:59 437.505/2401.250
VELOX 1 01 Mar 12:53:22 12:57:46 66° 286° (WNW) 13:02:09 145.980
Oscar 19 01 Mar 12:59:19 13:04:28 76° 256° (WSW) 13:09:37 437.125/150
AO-85 01 Mar 13:08:33 13:11:25 20° 247° (WSW) 13:14:19 145.980
BEESAT 3 01 Mar 13:09:53 13:13:33 32° 47° (NE) 13:17:11 437.485
50 SAT 01 Mar 13:10:16 13:13:37 46° 287° (WNW) 13:16:57 437.505
ITAMSAT 1 01 Mar 13:43:45 13:48:18 31° 65° (ENE) 13:52:53 435.822/435.867
PCSat 01 Mar 13:56:32 13:58:42 12° 102° (ESE) 14:00:54 145.827
BEESAT 2 01 Mar 13:58:16 14:02:08 41° 50° (NE) 14:05:59 435.950
SPROUT 01 Mar 14:04:20 14:06:54 16° 297° (WNW) 14:09:27 437.525
DX 1 01 Mar 14:06:24 14:10:03 27° 294° (WNW) 14:13:42 434.975-435.025
UKube-1 01 Mar 14:08:57 14:12:49 33° 292° (WNW) 14:16:42 .
ISS 01 Mar 14:10:05 14:11:27 12° 229° (SW) 14:12:48 437.550
Gurwin Techsat 1B 01 Mar 14:22:23 14:26:46 26° 266° (W) 14:31:10 435.225
ITUPSAT 1 01 Mar 14:24:14 14:28:16 26° 95° (E) 14:32:16 437.325
BEESAT 01 Mar 14:27:34 14:31:43 29° 95° (E) 14:35:51 436.000
AO-7 01 Mar 14:31:06 14:39:25 75° 68° (ENE) 14:47:46 .
BEESAT 3 01 Mar 14:47:40 14:51:03 27° 245° (WSW) 14:54:26 437.485
NO-84 01 Mar 14:54:26 14:56:34 17° 127° (SE) 14:58:49 435.350 FM
ITAMSAT 1 01 Mar 15:22:55 15:27:40 36° 263° (W) 15:32:29 435.822/435.867
PCSat 01 Mar 15:35:50 15:41:16 88° 116° (ESE) 15:46:44 145.827
BEESAT 2 01 Mar 15:36:37 15:39:39 21° 248° (WSW) 15:42:41 435.950
RS-15 01 Mar 15:40:24 15:50:45 37° 105° (ESE) 16:01:23 29.354- 29.394
KKS-1 01 Mar 15:41:58 15:44:41 16° 91° (E) 15:47:24 437.445
MOZHAYETS 4 01 Mar 15:44:00 15:48:36 66° 102° (ESE) 15:53:08
ITUPSAT 1 01 Mar 16:01:46 16:06:09 36° 292° (WNW) 16:10:30 437.325
STARS 01 Mar 16:03:44 16:05:18 12° 89° (E) 16:06:51 437.465
BEESAT 01 Mar 16:05:14 16:09:29 33° 293° (WNW) 16:13:44 436.000
AO-7 01 Mar 16:26:17 16:32:54 26° 267° (W) 16:39:34 .
LilacSat-2 01 Mar 16:26:43 16:29:00 15° 64° (ENE) 16:31:16 437.200
NO-84 01 Mar 16:30:44 16:33:50 49° 326° (NNW) 16:37:16 435.350 FM
DOVE 4 01 Mar 16:43:25 16:46:53 26° 67° (ENE) 16:50:25 437.250
CUBESAT XI-V 01 Mar 16:56:03 17:00:37 60° 101° (E) 17:05:09 437.345
KAITUO 1B 01 Mar 17:03:04 17:06:23 29° 70° (ENE) 17:09:42 145.475/437.950
CUTE-I 01 Mar 17:04:35 17:09:36 44° 69° (ENE) 17:14:41 437.470
XW-2F 01 Mar 17:15:25 17:19:07 48° 73° (ENE) 17:22:51 145.980 - 146.000
KKS-1 01 Mar 17:17:11 17:21:34 54° 288° (WNW) 17:25:56 437.445
PCSat 01 Mar 17:21:33 17:25:23 19° 320° (NW) 17:29:16 145.827
MOZHAYETS 4 01 Mar 17:22:38 17:25:13 15° 299° (WNW) 17:27:47
XW-2D 01 Mar 17:22:57 17:26:45 63° 75° (ENE) 17:30:35 145.860 - 145.880
XW-2B 01 Mar 17:28:06 17:31:55 71° 76° (ENE) 17:35:47 145.730 - 145.750
NUDT-PHONESAT 01 Mar 17:31:36 17:35:19 63° 75° (ENE) 17:39:05 437.300
XW-2A 01 Mar 17:31:45 17:32:41 11° 64° (ENE) 17:33:38 145.665 - 145.685
XW-2C 01 Mar 17:36:56 17:40:47 89° 253° (WSW) 17:44:40 145.795 - 145.815
STARS 01 Mar 17:37:41 17:42:08 72° 285° (WNW) 17:46:32 437.465
SEEDS 01 Mar 17:48:22 17:48:55 10° 60° (ENE) 17:49:28 437.485
HO-68 01 Mar 17:49:01 17:55:19 35° 61° (ENE) 18:01:38 435.675
RS-15 01 Mar 17:50:18 18:02:19 73° 309° (NW) 18:14:47 29.354- 29.394
LilacSat-2 01 Mar 17:59:10 18:02:54 45° 261° (W) 18:06:40 437.200
M-CUBED/EXP-1 PRIME 01 Mar 18:03:23 18:07:18 80° 109° (ESE) 18:11:32 437.505
CUBEBUG 2 01 Mar 18:06:50 18:08:56 13° 60° (ENE) 18:11:03 437.445
NO-84 01 Mar 18:09:53 18:12:13 17° 349° (NNW) 18:14:41 435.350 FM
DOVE 4 01 Mar 18:20:58 18:24:32 27° 265° (W) 18:28:11 437.250
CUTE 1.7 + AOD 2 01 Mar 18:31:56 18:35:58 43° 72° (ENE) 18:40:01 437.475
UWE-3 01 Mar 18:33:20 18:35:59 15° 62° (ENE) 18:38:40 435.000/436.395/437.385
CUBESAT XI-V 01 Mar 18:34:43 18:37:31 16° 298° (WNW) 18:40:17 437.345
KAITUO 1B 01 Mar 18:37:29 18:40:25 21° 266° (W) 18:43:22 145.475/437.950
ZACube-1 01 Mar 18:44:21 18:46:06 12° 59° (ENE) 18:47:50 437.345
CUTE-I 01 Mar 18:45:24 18:49:49 26° 266° (W) 18:54:17 437.470
XW-2F 01 Mar 18:51:41 18:53:33 13° 270° (W) 18:55:25 145.980 - 146.000
AAUSAT CUBESAT 2 01 Mar 18:55:18 18:58:45 26° 68° (ENE) 19:02:11 437.432
XW-2D 01 Mar 19:01:08 19:01:21 10° 271° (W) 19:01:35 145.860 - 145.880
XW-2A 01 Mar 19:01:41 19:05:01 50° 260° (W) 19:08:23 145.665 - 145.685
STRAND 1 01 Mar 19:17:29 19:22:25 44° 99° (E) 19:27:18 437.568
SEEDS 01 Mar 19:19:42 19:23:55 85° 253° (WSW) 19:28:10 437.485
AO-73 01 Mar 19:27:24 19:31:15 28° 67° (ENE) 19:35:09 145.935
Oscar 11 01 Mar 19:28:17 19:31:49 25° 67° (ENE) 19:35:22 .
YUBILEINY 01 Mar 19:30:49 19:37:20 22° 61° (ENE) 19:43:47 435.215
HO-68 01 Mar 19:35:51 19:42:47 51° 260° (W) 19:49:45 435.675
M-CUBED/EXP-1 PRIME 01 Mar 19:40:11 19:41:18 11° 303° (WNW) 19:42:26 437.505
CUBEBUG 2 01 Mar 19:40:21 19:44:51 78° 258° (WSW) 19:49:32 437.445
DELFI C3 01 Mar 19:46:48 19:48:08 11° 62° (ENE) 19:49:26 145.870
NO-84 01 Mar 19:48:38 19:51:03 16° 10° (N) 19:53:35 435.350 FM
SO-50 01 Mar 20:02:23 20:04:54 14° 109° (ESE) 20:07:25 436.795
RS-15 01 Mar 20:06:44 20:17:26 33° 338° (NNW) 20:28:17 29.354- 29.394
UWE-3 01 Mar 20:07:23 20:11:52 64° 259° (W) 20:16:30 435.000/436.395/437.385
CUTE 1.7 + AOD 2 01 Mar 20:09:06 20:12:00 18° 268° (W) 20:14:56 437.475
ZACube-1 01 Mar 20:17:09 20:21:39 84° 254° (WSW) 20:26:16 437.345
AAUSAT CUBESAT 2 01 Mar 20:30:32 20:34:08 28° 265° (W) 20:37:43 437.432
O/OREOS (USA 219) 01 Mar 20:36:51 20:37:38 10° 96° (E) 20:38:26 437.305
PRISM 01 Mar 20:45:39 20:47:51 14° 92° (E) 20:50:03 437.425
STRAND 1 01 Mar 20:57:10 21:01:21 25° 296° (WNW) 21:05:30 437.568
AO-73 01 Mar 21:03:23 21:07:23 31° 265° (W) 21:11:26 145.935
Oscar 11 01 Mar 21:03:52 21:07:48 33° 264° (W) 21:11:46 .
DELFI C3 01 Mar 21:18:27 21:22:23 66° 259° (WSW) 21:26:19 145.870
NO-84 01 Mar 21:25:53 21:29:32 38° 30° (NNE) 21:33:27 435.350 FM
YUBILEINY 01 Mar 21:26:33 21:35:19 85° 263° (W) 21:44:00 435.215
SO-50 01 Mar 21:40:09 21:44:49 73° 306° (NW) 21:49:26 436.795
FO-29 01 Mar 21:47:53 21:53:37 24° 88° (E) 21:58:53 435.910
LO-87 01 Mar 22:05:09 22:08:33 49° 74° (ENE) 22:12:01 145.935 - 145.965
O/OREOS (USA 219) 01 Mar 22:11:50 22:16:19 80° 294° (WNW) 22:20:52 437.305
ESTCUBE 1 01 Mar 22:12:12 22:16:17 35° 69° (ENE) 22:20:22 437.505/2401.250
VELOX 1 01 Mar 22:17:39 22:20:02 14° 61° (ENE) 22:22:23 145.980
PRISM 01 Mar 22:19:27 22:23:26 50° 288° (WNW) 22:27:23 437.425
TIGRISAT 01 Mar 22:24:11 22:28:53 70° 102° (ESE) 22:33:30 435.000
RS-15 01 Mar 22:24:34 22:34:59 30° 13° (NNE) 22:45:14 29.354- 29.394
UNISAT 6 01 Mar 22:25:28 22:30:10 78° 102° (ESE) 22:34:48 437.425
PCSat 01 Mar 22:39:52 22:43:43 19° 39° (NE) 22:47:33 145.827
POLYITAN 1 01 Mar 22:44:40 22:45:30 10° 88° (E) 22:46:19 437.675
QB50P2 01 Mar 22:46:59 22:48:46 12° 89° (E) 22:50:33 145.880/145.840
AIST 2D 01 Mar 22:48:18 22:50:42 17° 93° (E) 22:53:05 435.315
NO-84 01 Mar 23:03:28 23:07:15 39° 226° (SW) 23:11:16 435.350 FM
SPROUT 01 Mar 23:21:35 23:25:41 49° 72° (ENE) 23:29:50 437.525
SO-50 01 Mar 23:23:28 23:26:05 15° 326° (NNW) 23:28:40 436.795
YUBILEINY 01 Mar 23:25:32 23:30:43 18° 285° (WNW) 23:35:54 435.215
DX 1 01 Mar 23:26:50 23:30:40 32° 68° (ENE) 23:34:31 434.975-435.025
UKube-1 01 Mar 23:29:02 23:32:32 25° 66° (ENE) 23:36:02 .
FO-29 01 Mar 23:31:51 23:39:22 70° 288° (WNW) 23:46:04 435.910
LO-87 01 Mar 23:41:36 23:42:20 10° 270° (W) 23:43:04 145.935 - 145.965
DUCHIFAT 1 01 Mar 23:41:39 23:45:37 37° 97° (E) 23:49:34 145.980
50 SAT 01 Mar 23:45:02 23:48:30 77° 76° (ENE) 23:52:00 437.505
ESTCUBE 1 01 Mar 23:49:29 23:53:09 24° 266° (W) 23:56:49 437.505/2401.250
VELOX 1 01 Mar 23:51:38 23:55:57 63° 258° (WSW) 00:00:20 145.980
O/OREOS (USA 219) 01 Mar 23:55:08 23:56:32 11° 314° (NW) 23:57:55 437.305
EO-79 01 Mar 23:58:18 00:02:35 68° 101° (ESE) 00:06:51 145.935-145.965
TIGRISAT 02 Mar 00:02:24 00:04:58 15° 300° (WNW) 00:07:31 435.000
UNISAT 6 02 Mar 00:03:58 00:06:13 13° 300° (WNW) 00:08:27 437.425
NANOSAT C BR1 02 Mar 00:12:01 00:16:19 88° 105° (ESE) 00:20:35 145.865
POLYITAN 1 02 Mar 00:17:29 00:21:47 74° 285° (WNW) 00:26:03 437.675
BUGSAT 1 02 Mar 00:17:58 00:21:49 32° 97° (E) 00:25:38 437.445
QB50P2 02 Mar 00:20:43 00:24:59 64° 287° (WNW) 00:29:12 145.880/145.840
AIST 2D 02 Mar 00:20:51 00:24:00 30° 289° (WNW) 00:27:08 435.315
PCSat 02 Mar 00:22:23 00:27:52 88° 240° (WSW) 00:33:17 145.827
RS-15 02 Mar 00:38:44 00:50:57 58° 45° (NE) 01:02:40 29.354- 29.394
Gurwin Techsat 1B 02 Mar 00:57:41 01:00:42 15° 89° (E) 01:03:42 435.225
SPROUT 02 Mar 00:59:18 01:01:54 16° 269° (W) 01:04:29 437.525
DX 1 02 Mar 01:03:19 01:06:53 25° 265° (W) 01:10:27 434.975-435.025
UKube-1 02 Mar 01:04:34 01:08:25 32° 263° (W) 01:12:19 .
Oscar 19 02 Mar 01:09:40 01:14:18 33° 97° (E) 01:18:55 437.125/150
DUCHIFAT 1 02 Mar 01:17:48 01:21:04 22° 294° (WNW) 01:24:19 145.980
FO-29 02 Mar 01:18:42 01:22:56 16° 310° (NW) 01:26:59 435.910
ITUPSAT 1 02 Mar 01:32:02 01:36:25 36° 68° (ENE) 01:40:50 437.325
BEESAT 02 Mar 01:35:02 01:39:28 39° 69° (ENE) 01:43:56 436.000
EO-79 02 Mar 01:35:48 01:37:48 13° 299° (WNW) 01:39:47 145.935-145.965
NANOSAT C BR1 02 Mar 01:50:45 01:51:20 10° 301° (WNW) 01:51:54 145.865
BUGSAT 1 02 Mar 01:53:34 01:57:01 24° 293° (WNW) 02:00:28 437.445
PCSat 02 Mar 02:08:10 02:10:25 13° 258° (WSW) 02:12:40 145.827
AO-7 02 Mar 02:32:28 02:38:24 21° 91° (E) 02:44:17 .
Gurwin Techsat 1B 02 Mar 02:35:52 02:41:12 74° 286° (WNW) 02:46:30 435.225
KKS-1 02 Mar 02:41:24 02:44:25 18° 63° (ENE) 02:47:26 437.445
MOZHAYETS 4 02 Mar 02:46:46 02:51:23 73° 75° (ENE) 02:56:02
Oscar 19 02 Mar 02:49:02 02:53:33 32° 294° (WNW) 02:58:04 437.125/150
RS-15 02 Mar 02:51:47 03:03:21 51° 249° (WSW) 03:14:27 29.354- 29.394
STARS 02 Mar 03:01:39 03:03:50 14° 60° (ENE) 03:06:00 437.465
ITUPSAT 1 02 Mar 03:10:16 03:14:18 26° 265° (W) 03:18:22 437.325
BEESAT 02 Mar 03:13:29 03:17:21 24° 266° (W) 03:21:15 436.000
AO-85 02 Mar 03:22:41 03:27:13 82° 121° (ESE) 03:31:26 145.980
ITAMSAT 1 02 Mar 03:33:39 03:38:54 72° 103° (ESE) 03:44:06 435.822/435.867
CUBESAT XI-V 02 Mar 04:00:19 04:04:56 68° 74° (ENE) 04:09:32 437.345
KKS-1 02 Mar 04:16:19 04:20:36 49° 260° (W) 04:24:56 437.445
Gurwin Techsat 1B 02 Mar 04:18:32 04:20:13 11° 305° (NW) 04:21:53 435.225
AO-7 02 Mar 04:23:45 04:32:07 85° 290° (WNW) 04:40:25 .
MOZHAYETS 4 02 Mar 04:27:09 04:29:03 12° 271° (W) 04:30:57
SO-50 02 Mar 04:30:23 04:34:00 23° 41° (NE) 04:37:34 436.795
STARS 02 Mar 04:35:16 04:39:36 68° 258° (WSW) 04:44:01 437.465
BEESAT 3 02 Mar 04:38:18 04:41:48 32° 116° (ESE) 04:45:22 437.485
M-CUBED/EXP-1 PRIME 02 Mar 04:51:32 04:54:44 57° 253° (WSW) 04:58:00 437.505
STRAND 1 02 Mar 05:00:09 05:01:24 11° 55° (NE) 05:02:39 437.568
AO-85 02 Mar 05:05:25 05:08:06 16° 321° (NW) 05:10:40 145.980
ITAMSAT 1 02 Mar 05:14:28 05:17:46 17° 301° (WNW) 05:21:03 435.822/435.867
ISS 02 Mar 05:14:31 05:16:08 13° 132° (SE) 05:17:46 437.550
CUTE-I 02 Mar 05:21:25 05:24:30 15° 89° (E) 05:27:35 437.470
Tancredo 1 02 Mar 05:25:34 05:27:46 17° 134° (SE) 05:29:58 437.200
BEESAT 2 02 Mar 05:28:09 05:31:55 45° 119° (ESE) 05:35:46 435.950
LilacSat-2 02 Mar 05:31:52 05:34:24 17° 92° (E) 05:36:54 437.200
CUBESAT XI-V 02 Mar 05:40:36 05:42:46 13° 271° (W) 05:44:55 437.345
KAITUO 1B 02 Mar 06:06:36 06:10:01 32° 97° (E) 06:13:24 145.475/437.950
SO-50 02 Mar 06:10:22 06:14:46 55° 240° (WSW) 06:19:08 436.795
BEESAT 3 02 Mar 06:16:03 06:19:26 27° 315° (NW) 06:22:51 437.485
DOVE 4 02 Mar 06:16:25 06:21:15 65° 101° (E) 06:26:19 437.250
AO-7 02 Mar 06:17:49 06:23:47 23° 311° (NW) 06:29:44 .
XW-2F 02 Mar 06:20:13 06:23:59 58° 101° (E) 06:27:42 145.980 - 146.000
XW-2D 02 Mar 06:28:13 06:32:03 79° 102° (ESE) 06:35:50 145.860 - 145.880
XW-2B 02 Mar 06:33:23 06:37:15 88° 107° (ESE) 06:41:01 145.730 - 145.750
STRAND 1 02 Mar 06:34:31 06:39:39 73° 73° (ENE) 06:44:48 437.568
NUDT-PHONESAT 02 Mar 06:34:38 06:38:24 74° 102° (ESE) 06:42:07 437.300
O/OREOS (USA 219) 02 Mar 06:41:29 06:45:30 29° 57° (ENE) 06:49:29 437.305
XW-2C 02 Mar 06:42:19 06:46:08 71° 285° (WNW) 06:49:54 145.795 - 145.815
ISS 02 Mar 06:48:53 06:52:11 87° 328° (NNW) 06:55:30 437.550
CUTE-I 02 Mar 06:59:43 07:05:07 74° 287° (WNW) 07:10:28 437.470
Tancredo 1 02 Mar 07:00:28 07:03:42 67° 331° (NNW) 07:06:57 437.200
HO-68 02 Mar 07:02:06 07:08:16 30° 95° (E) 07:14:23 435.675
SEEDS 02 Mar 07:03:31 07:05:46 14° 90° (E) 07:07:59 437.485
LilacSat-2 02 Mar 07:05:17 07:08:50 36° 289° (WNW) 07:12:19 437.200
BEESAT 2 02 Mar 07:06:48 07:09:54 21° 317° (NW) 07:13:03 435.950
CUBEBUG 2 02 Mar 07:30:25 07:34:06 22° 92° (E) 07:37:42 437.445
PRISM 02 Mar 07:36:53 07:38:51 13° 62° (ENE) 07:40:48 437.425
KAITUO 1B 02 Mar 07:41:10 07:43:50 19° 294° (WNW) 07:46:28 145.475/437.950
CUTE 1.7 + AOD 2 02 Mar 07:50:47 07:55:01 72° 103° (ESE) 07:59:11 437.475
XW-2A 02 Mar 07:54:53 07:58:19 58° 285° (WNW) 08:01:42 145.665 - 145.685
DOVE 4 02 Mar 07:55:24 07:58:30 17° 297° (WNW) 08:01:40 437.250
UWE-3 02 Mar 07:56:07 07:59:56 25° 93° (E) 08:03:40 435.000/436.395/437.385
XW-2F 02 Mar 07:56:14 07:57:39 12° 297° (WNW) 07:59:03 145.980 - 146.000
FO-29 02 Mar 08:02:34 08:06:52 16° 50° (NE) 08:11:15 435.910
ZACube-1 02 Mar 08:05:10 08:08:16 18° 91° (E) 08:11:19 437.345
AAUSAT CUBESAT 2 02 Mar 08:10:36 08:14:27 37° 98° (E) 08:18:16 437.432
STRAND 1 02 Mar 08:16:32 08:19:21 15° 271° (W) 08:22:10 437.568
O/OREOS (USA 219) 02 Mar 08:20:48 08:24:53 32° 255° (WSW) 08:28:58 437.305
ISS 02 Mar 08:26:11 08:29:00 25° 347° (NNW) 08:31:50 437.550
YUBILEINY 02 Mar 08:35:03 08:41:30 23° 79° (E) 08:47:55 435.215
SEEDS 02 Mar 08:37:43 08:41:46 51° 287° (WNW) 08:45:48 437.485
Tancredo 1 02 Mar 08:37:43 08:40:23 23° 350° (N) 08:43:03 437.200
CUTE-I 02 Mar 08:42:24 08:44:13 12° 305° (NW) 08:46:02 437.470
Oscar 11 02 Mar 08:49:12 08:53:16 39° 98° (E) 08:57:18 .
HO-68 02 Mar 08:49:21 08:56:18 56° 293° (WNW) 09:03:13 435.675
AO-73 02 Mar 08:49:26 08:53:48 46° 98° (E) 08:58:03 145.935
DELFI C3 02 Mar 08:55:34 08:57:37 14° 91° (E) 08:59:38 145.870
CUBEBUG 2 02 Mar 09:06:22 09:10:52 42° 289° (WNW) 09:15:17 437.445
PRISM 02 Mar 09:09:39 09:13:39 60° 259° (WSW) 09:17:41 437.425
TIGRISAT 02 Mar 09:23:37 09:28:09 71° 74° (ENE) 09:32:49 435.000
UNISAT 6 02 Mar 09:25:03 09:29:37 78° 75° (ENE) 09:34:18 437.425
CUTE 1.7 + AOD 2 02 Mar 09:28:41 09:30:16 12° 299° (WNW) 09:31:51 437.475
UWE-3 02 Mar 09:32:12 09:36:27 36° 291° (WNW) 09:40:37 435.000/436.395/437.385
POLYITAN 1 02 Mar 09:39:02 09:40:00 11° 59° (ENE) 09:40:59 437.675
ZACube-1 02 Mar 09:40:26 09:44:48 47° 288° (WNW) 09:49:04 437.345
QB50P2 02 Mar 09:41:27 09:43:10 12° 60° (ENE) 09:44:52 145.880/145.840
FO-29 02 Mar 09:43:04 09:50:23 66° 70° (ENE) 09:58:11 435.910
AAUSAT CUBESAT 2 02 Mar 09:46:42 09:49:40 20° 294° (WNW) 09:52:37 437.432
ISS 02 Mar 10:03:33 10:06:15 22° 8° (N) 10:08:55 437.550
AO-85 02 Mar 10:13:35 10:15:44 14° 37° (NE) 10:17:52 145.980
Tancredo 1 02 Mar 10:14:42 10:17:23 23° 11° (N) 10:20:03 437.200
Oscar 11 02 Mar 10:25:55 10:29:09 21° 295° (WNW) 10:32:21 .
AO-73 02 Mar 10:26:29 10:29:40 19° 296° (WNW) 10:32:48 145.935
YUBILEINY 02 Mar 10:28:28 10:37:18 78° 279° (W) 10:46:08 435.215
DELFI C3 02 Mar 10:28:53 10:32:40 47° 287° (WNW) 10:36:26 145.870
DUCHIFAT 1 02 Mar 10:34:37 10:38:23 32° 69° (ENE) 10:42:11 145.980
HO-68 02 Mar 10:39:53 10:42:30 12° 314° (NW) 10:45:08 435.675
EO-79 02 Mar 10:51:38 10:55:47 59° 73° (ENE) 11:00:00 145.935-145.965
AIST 2D 02 Mar 10:55:49 10:59:22 71° 259° (WSW) 11:02:58 435.315
TIGRISAT 02 Mar 11:03:22 11:05:21 13° 272° (W) 11:07:23 435.000
LO-87 02 Mar 11:03:59 11:07:32 52° 100° (E) 11:11:05 145.935 - 145.965
NANOSAT C BR1 02 Mar 11:04:56 11:09:09 76° 75° (ENE) 11:13:25 145.865
UNISAT 6 02 Mar 11:05:29 11:06:54 11° 273° (W) 11:08:21 437.425
BUGSAT 1 02 Mar 11:09:03 11:12:30 27° 67° (ENE) 11:16:00 437.445
POLYITAN 1 02 Mar 11:10:51 11:15:07 85° 260° (W) 11:19:25 437.675
QB50P2 02 Mar 11:14:07 11:18:21 73° 257° (WSW) 11:22:39 145.880/145.840
FO-29 02 Mar 11:29:42 11:35:54 28° 270° (W) 11:42:27 435.910
ESTCUBE 1 02 Mar 11:39:20 11:43:47 63° 101° (E) 11:48:13 437.505/2401.250
ISS 02 Mar 11:39:58 11:43:13 55° 27° (NNE) 11:46:28 437.550
VELOX 1 02 Mar 11:40:43 11:44:08 21° 94° (E) 11:47:32 145.980
Tancredo 1 02 Mar 11:50:49 11:54:03 69° 29° (NNE) 11:57:15 437.200
AO-85 02 Mar 11:52:43 11:56:38 81° 239° (WSW) 12:00:36 145.980
DUCHIFAT 1 02 Mar 12:10:42 12:14:05 23° 266° (W) 12:17:31 145.980
Gurwin Techsat 1B 02 Mar 12:19:32 12:24:01 29° 65° (ENE) 12:28:33 435.225
EO-79 02 Mar 12:29:56 12:31:55 13° 270° (W) 12:33:57 145.935-145.965
